{"data":{"norad_id":65514,"intl_designator":"2025-198Y","name":"STARLINK-35026","alt_names":[],"object_type":"PAYLOAD","status":"ACTIVE","operator":null,"country":"US","launch_date":"2025-09-05","launch_site_code":"AFETR","launch_vehicle":null,"mission":null,"orbit_class":"UNKNOWN","rcs_meters":null,"size_class":null,"mass_kg":null,"dimensions":null,"purposes":["comms"],"wikipedia_slug":null,"has_3d_model":false,"image_url":null,"decayed_at":null,"tle_current":{"epoch":"2026-05-25T02:22:46.331040Z","epoch_age_seconds":77202,"freshness":"FRESH","line1":"1 65514U 25198Y   26145.09914735  .00019391  00000+0  66500-3 0  9994","line2":"2 65514  53.1604 276.4342 0001106 117.6925 242.4188 15.30206198 40311","mean_motion":15.30206198,"eccentricity":0.0001106,"inclination_deg":53.1604,"raan_deg":276.4342,"arg_perigee_deg":117.6925,"mean_anomaly_deg":242.4188,"bstar":0.000665,"rev_number":4031,"period_min":94.104964538903,"perigee_km":474.43858467888,"apogee_km":475.95454206309,"semimajor_km":6853.333563371,"source":"CELESTRAK","updated_at":"2026-05-25T13:38:20.844446Z"}}}